EHI
16 17 19 20 18 16 16 14 10 7 8 8 5 3 2 1 1 1 2 7 13 15 15 13 10 8 7 7 7 8 8 8 8 9 7 6 6 7 7 5 4 4 3
17 17 17 17 15 14 14 13 10 9 10 9 5 3 1 1 2 3 3 6 11 14 14 13 10 7 5 5 7 8 8 9 10 9 7 5 4 5 5 6 5 4 3
17 17 15 13 11 12 13 12 10 9 8 7 5 3 2 3 5 6 4 4 6 9 11 13 12 9 6 5 5 7 8 9 10 10 7 4 3 3 4 5 6 5 4
16 16 14 11 11 12 12 11 10 7 4 3 4 4 4 7 9 9 6 4 3 4 7 12 14 12 9 7 5 6 7 8 9 9 8 5 4 3 3 4 4 5 4
14 14 13 13 14 13 11 9 8 6 4 3 3 4 6 9 10 10 8 6 4 3 4 8 11 12 12 10 8 6 6 6 7 8 9 8 5 4 3 3 3 3 2
12 12 13 15 17 14 10 8 7 6 6 5 3 2 4 7 10 10 10 8 6 4 4 5 7 9 11 12 11 8 7 7 7 8 9 9 8 5 4 3 3 1 0
12 12 14 17 18 14 12 10 8 6 7 7 4 2 2 4 8 9 9 8 6 5 4 5 5 6 8 10 9 9 9 8 7 8 9 10 9 7 5 3 2 1 0
14 13 14 17 17 15 13 12 9 6 6 7 6 3 1 2 4 7 7 6 5 4 4 4 5 5 6 6 6 8 9 8 8 8 9 10 10 9 6 3 1 0 0
14 14 14 15 16 14 12 11 9 7 7 7 6 4 2 1 2 4 5 5 5 4 3 3 4 4 5 6 5 6 8 8 8 8 9 8 8 8 7 3 1 0 0
14 14 14 14 13 12 10 10 9 9 9 8 6 5 4 3 3 3 4 5 6 4 3 3 3 4 5 6 5 5 6 7 7 8 9 7 6 6 5 3 1 0 0
13 13 13 12 11 10 10 10 10 10 9 8 7 5 5 6 5 4 3 4 5 4 4 4 4 5 6 5 4 4 4 4 5 7 8 6 5 4 3 3 2 1 0
12 11 11 11 11 10 10 11 10 10 9 8 7 6 6 7 6 4 3 3 4 5 5 5 4 5 5 4 3 3 2 1 2 3 4 5 5 4 3 3 3 2 1
11 10 9 10 10 10 10 11 11 9 7 5 5 5 5 4 3 3 1 1 2 4 6 4 3 4 4 3 3 3 2 0 0 1 1 3 4 4 4 3 3 3 2
10 8 8 9 10 10 10 11 10 8 5 4 4 4 4 2 2 2 1 1 1 2 3 3 2 3 4 4 3 3 2 1 0 0 0 1 2 3 3 3 2 2 2
8 7 8 9 10 10 10 9 8 5 5 5 4 4 3 2 3 3 3 2 1 0 1 1 2 3 4 4 3 3 2 1 0 0 0 0 0 1 2 2 1 0 1
8 8 8 9 10 10 9 8 5 3 3 4 4 3 2 3 3 4 4 3 2 1 1 1 2 3 3 2 1 2 2 1 0 0 0 0 0 0 1 1 0 0 0
8 8 8 7 7 8 7 5 3 1 1 1 2 1 1 2 3 3 4 3 3 3 2 2 2 2 2 1 1 1 2 1 0 0 0 0 0 0 0 0 0 0 0
7 7 7 5 4 5 4 3 1 0 0 0 0 0 0 1 2 3 3 3 3 3 3 2 1 2 3 2 1 1 1 0 0 0 0 0 0 0 0 0 0 0 0
6 6 6 5 4 3 2 2 1 0 0 0 0 0 0 0 1 3 3 3 3 3 3 2 0 1 2 2 2 1 0 0 0 0 0 0 0 0 0 0 0 0 0
6 6 6 5 4 2 1 1 1 0 0 0 0 0 0 0 1 2 3 3 3 3 3 1 0 0 1 1 2 2 1 0 0 0 0 0 0 0 0 0 0 0 0
5 5 4 4 3 2 1 0 0 0 0 0 0 0 0 0 1 1 2 2 3 3 2 1 0 0 1 2 3 2 1 0 0 0 0 0 0 0 0 0 0 0 0
4 4 3 3 3 2 1 0 0 0 0 0 0 0 0 0 0 0 0 1 1 2 2 1 1 0 1 2 3 2 1 0 0 0 0 0 0 0 0 0 0 0 0
4 4 4 4 3 2 1 0 0 0 0 0 0 0 0 0 0 0 0 0 0 1 1 0 0 0 1 2 3 2 1 0 0 0 0 0 0 0 0 0 0 0 0
7 7 6 5 4 1 0 0 0 0 0 0 0 0 0 0 0 0 0 0 1 1 0 0 0 0 1 2 3 2 1 0 0 0 0 0 0 0 0 0 0 0 0
7 7 6 6 5 2 0 0 0 0 0 0 0 0 0 0 0 0 0 0 1 2 1 0 0 0 0 1 2 1 1 0 0 0 0 0 0 0 0 0 0 0 0
5 5 5 6 6 4 1 0 0 0 0 0 0 0 0 0 0 0 0 0 1 2 1 0 0 0 0 0 1 0 0 0 0 0 0 0 0 0 0 0 0 0 0
Wind_Speed
1 1 1 1 2 2 3 2 3 3 3 4 4 4 3 2 3 2 3 8 9 9 9 8 7 5 5 6 5 5 5 5 6 6 6 6 6 6 6 7 7 7 8
1 1 1 1 2 2 1 2 3 2 2 2 3 3 3 3 2 2 3 5 8 9 9 8 7 6 6 6 6 6 5 5 6 7 7 7 6 6 6 7 7 7 8
1 1 1 1 2 2 2 2 2 2 2 2 2 3 3 3 2 1 2 3 4 7 8 8 7 6 7 7 7 7 7 7 7 7 7 7 7 7 7 7 7 8 8
1 1 1 1 2 2 2 2 1 2 2 2 2 3 3 2 3 3 2 2 2 3 5 7 6 6 7 8 8 7 8 8 8 8 8 7 7 7 8 8 8 8 8
1 0 1 1 1 1 1 3 1 2 2 2 3 3 3 2 2 3 2 2 2 2 3 6 7 7 7 7 7 7 7 7 7 7 8 8 8 8 8 8 8 9 9
1 0 0 1 2 1 1 2 2 2 2 2 4 3 2 2 2 2 2 2 2 3 2 3 4 6 8 7 7 7 7 7 7 7 8 8 7 7 8 8 8 9 9
0 0 1 1 1 1 1 2 2 3 2 1 3 3 3 3 2 2 2 1 2 3 3 3 3 3 3 7 7 7 7 7 7 7 8 7 7 7 7 7 7 9 9
1 1 1 0 1 1 1 2 2 2 3 1 1 2 2 2 2 4 3 3 4 3 3 4 3 3 4 3 5 8 8 7 7 7 7 7 6 7 8 8 8 8 9
1 1 1 1 1 1 1 2 1 2 3 2 1 1 2 1 2 2 3 3 3 2 3 3 3 3 4 3 3 5 6 5 6 7 7 7 6 7 8 9 9 9 9
1 1 1 2 1 1 1 2 1 2 3 3 2 2 2 2 2 2 2 2 2 3 3 3 2 3 3 2 3 5 6 5 5 5 6 6 7 7 7 8 9 10 10
1 1 1 1 1 1 1 1 1 2 2 2 2 2 3 2 2 2 3 2 2 3 3 3 3 2 2 3 3 4 6 6 5 5 5 5 6 7 7 8 9 9 10
1 1 1 1 1 1 1 1 1 2 2 3 3 2 2 2 2 2 3 3 3 3 2 2 3 3 2 2 3 5 6 7 6 6 6 6 6 7 7 8 9 9 10
0 0 1 1 1 1 1 1 1 2 2 3 3 3 3 3 3 2 2 3 4 3 2 2 2 2 2 2 3 5 5 6 6 6 6 6 7 7 7 7 8 8 9
0 0 1 1 1 1 1 1 2 2 2 2 4 3 3 3 2 2 1 2 3 3 2 2 1 2 1 2 3 5 4 6 6 7 7 7 7 7 7 7 7 7 7
1 1 1 1 1 1 1 1 1 2 2 2 3 3 2 2 2 2 2 2 2 4 3 3 1 1 2 2 4 3 3 7 7 8 8 8 8 8 8 8 7 7 7
1 1 1 1 1 1 2 1 2 1 2 2 2 2 3 2 2 2 2 2 2 3 4 2 2 2 2 3 3 3 3 6 8 9 10 9 9 8 8 8 8 8 8
1 1 1 1 1 2 2 1 2 2 2 2 3 2 2 2 2 2 2 2 2 2 4 4 3 2 3 3 3 3 3 4 5 9 11 10 10 10 9 9 9 9 8
1 1 1 1 2 1 1 1 2 2 2 2 3 2 3 2 2 2 2 3 2 3 3 5 4 3 3 3 2 3 4 4 4 8 11 11 11 11 11 10 10 9 9
1 2 1 1 1 1 1 1 2 2 2 2 2 2 2 2 2 2 3 3 3 4 3 4 5 3 2 2 2 3 4 3 5 5 8 10 11 11 11 11 11 11 10
1 1 1 0 0 1 2 2 2 2 2 2 2 2 2 1 2 3 3 3 3 4 4 4 4 3 2 2 2 3 3 3 4 4 4 6 9 11 12 11 11 12 11
1 0 0 0 0 0 2 3 3 2 2 2 3 2 2 1 1 2 3 3 4 3 4 4 4 3 3 2 2 3 4 3 3 3 2 3 4 4 6 9 11 12 12
1 1 0 0 1 1 2 2 3 3 2 3 3 3 2 1 2 4 5 5 4 4 4 4 4 4 4 3 3 4 4 4 4 2 2 4 3 4 4 5 8 11 12
0 0 1 0 1 2 2 2 2 2 3 2 3 3 4 2 2 2 3 4 5 6 6 4 4 5 4 3 3 4 4 4 5 4 3 4 3 3 3 5 8 10 10
1 1 1 0 1 0 1 0 2 2 3 3 3 3 2 2 3 3 3 3 3 3 4 3 4 4 4 3 3 4 4 4 4 3 2 4 3 4 4 2 5 9 10
1 1 1 1 1 1 1 1 1 2 3 3 3 3 2 1 1 2 2 3 4 3 4 4 5 5 5 6 5 3 3 3 4 4 2 3 3 3 3 2 3 6 8
1 1 1 2 2 1 2 3 3 2 3 3 3 2 2 1 1 1 2 3 4 4 4 5 4 5 5 5 6 3 3 3 3 3 2 2 3 2 3 2 1 2 3
Wind_Direction
185 226 247 222 233 231 224 236 249 245 245 246 248 248 258 238 228 195 163 179 181 182 188 195 201 209 217 219 221 224 221 221 218 214 210 211 214 219 221 225 224 221 219
187 227 231 246 267 258 247 250 255 249 244 261 270 270 270 262 229 194 181 188 193 192 193 199 205 212 223 229 229 230 228 226 222 215 211 212 211 215 221 225 226 223 223
239 247 265 236 278 279 255 254 270 262 251 248 249 259 252 257 254 213 197 187 190 201 202 202 207 216 224 231 233 234 233 229 226 219 215 214 214 215 219 225 231 229 226
251 279 274 272 288 287 281 263 267 272 264 264 256 253 245 222 228 209 198 192 184 189 196 200 205 216 226 232 235 236 237 235 229 225 223 221 222 221 222 226 231 232 227
227 237 288 327 300 304 314 299 318 298 288 278 267 245 245 234 215 216 183 183 187 178 184 196 209 216 225 232 238 237 236 236 233 230 228 227 227 226 225 227 229 230 226
227 226 237 288 297 309 324 320 325 305 292 287 285 280 254 245 218 203 206 202 194 200 198 188 200 217 221 224 231 234 236 235 236 236 234 232 230 227 225 227 229 230 227
207 183 284 256 297 314 306 314 312 297 294 302 295 289 266 237 225 201 212 220 225 215 207 203 194 200 206 216 221 229 235 236 239 241 241 236 231 229 227 229 231 233 230
252 215 250 264 292 287 288 292 296 295 291 281 279 286 283 263 256 225 205 208 223 220 216 216 200 200 202 193 206 220 227 235 242 246 248 245 237 232 232 231 230 231 229
214 263 232 269 266 266 265 271 311 296 292 292 269 273 291 289 291 248 227 217 215 215 220 216 215 222 223 203 189 203 210 225 241 248 251 247 243 239 238 238 234 231 230
217 219 212 243 258 283 286 279 329 298 290 298 287 255 248 265 280 307 285 250 234 224 221 228 227 229 229 206 166 174 189 201 227 245 254 253 245 243 240 240 237 234 233
187 222 195 213 206 232 249 269 295 284 291 296 300 302 291 279 259 264 288 280 264 242 217 210 214 219 222 202 184 176 185 193 209 232 247 257 256 249 245 245 243 240 237
164 177 183 198 192 228 252 266 277 269 280 295 298 299 299 298 295 277 284 288 277 265 243 219 215 212 213 199 191 181 190 194 206 221 235 249 258 254 251 249 248 247 243
111 222 271 218 212 235 253 271 270 272 275 286 287 287 286 282 282 281 286 291 287 277 260 243 216 210 219 182 174 183 190 192 205 217 226 236 248 254 254 252 251 250 250
129 202 250 261 278 277 272 262 271 267 274 282 290 290 282 282 291 280 266 280 295 295 281 272 227 197 213 185 187 194 203 199 209 220 224 228 235 244 248 247 247 248 254
260 233 249 266 294 285 278 265 264 273 290 277 278 289 290 290 288 299 288 271 279 292 285 296 302 235 229 202 191 201 197 200 210 223 226 228 230 235 241 242 241 241 245
255 245 260 243 243 274 278 282 286 290 295 295 279 282 287 290 311 307 294 289 271 276 287 287 281 255 259 266 228 218 215 209 213 222 223 224 227 229 233 236 239 240 241
246 245 246 253 256 266 276 289 277 286 297 292 291 292 295 301 309 299 304 296 289 282 283 292 293 284 266 264 255 246 236 214 215 222 222 223 227 228 228 231 234 234 236
257 247 235 263 263 278 289 297 302 323 311 297 299 302 302 303 307 301 304 298 291 277 278 288 291 285 279 267 265 260 264 251 231 223 221 223 225 227 227 228 228 227 228
250 250 249 255 314 345 340 312 294 298 296 301 308 305 304 316 318 308 299 301 298 302 288 282 285 279 282 286 288 281 281 272 264 242 225 225 227 229 229 227 226 223 223
250 257 284 319 10 1 360 343 329 316 314 322 317 305 307 318 313 307 304 309 302 299 290 283 283 287 290 300 294 284 286 278 273 274 251 238 231 233 231 226 225 221 220
253 278 345 326 318 30 25 360 338 330 327 320 316 308 304 319 324 300 306 313 308 299 299 294 291 300 301 317 302 296 296 295 287 280 266 257 232 229 228 232 231 225 221
1 18 355 350 9 27 54 37 8 345 328 315 311 310 292 263 273 266 270 281 288 285 289 290 294 299 303 308 306 303 305 306 296 296 293 282 271 246 231 221 219 218 216
301 292 304 80 78 48 64 49 4 322 306 300 297 299 304 326 323 310 288 284 279 270 256 263 285 288 291 294 295 295 294 293 287 283 284 278 275 270 261 243 216 217 217
199 210 267 69 102 9 132 56 328 292 287 285 284 283 290 307 335 329 311 305 292 288 263 243 250 270 283 284 275 279 286 294 286 283 278 272 270 265 270 266 229 220 214
202 217 210 186 177 236 202 236 282 292 289 279 271 274 276 286 338 346 320 310 307 306 305 287 264 269 278 289 290 299 297 301 301 297 292 275 277 282 276 268 246 221 217
233 236 216 202 200 201 191 213 232 271 285 284 273 255 257 269 295 307 305 304 301 303 313 310 297 280 265 267 262 242 258 279 291 293 294 287 291 305 298 282 272 219 224